Observations
| Time | Sensor | AQI | SAQ | Temp °C | Hum % | Pres Pa | CO μg/m³ | H₂S μg/m³ | NO μg/m³ | NO₂ μg/m³ | O₃ μg/m³ | SO₂ μg/m³ | CO₂e PPM | VOC PPM | PM1 μg/m³ | PM2.5 μg/m³ | PM4 μg/m³ | PM10 μg/m³ | TPS µm |
|---|---|---|---|---|---|---|---|---|---|---|---|---|---|---|---|---|---|---|---|
| Tuesday 11 August 2026 | |||||||||||||||||||
| 04:37 | Trim Market St | 2 | 12.7 | 74 | 45,938 | 0.38 | 0 | 3.77 | 13.96 | 30.26 | 0 | 3.56 | 4.76 | 7.53 | |||||
| 04:37 | Trim Patrick St | 1 | 11.2 | 81 | 38,460 | 0.38 | 2.31 | 4.13 | 23.31 | 11.15 | 0 | 4.57 | 9.34 | 10.27 | |||||
| 04:36 | Trim Market St | 2 | 12.7 | 74 | 45,965 | 0.37 | 0 | 3.82 | 13.96 | 34.39 | 0 | 2.14 | 2.84 | 5.13 | |||||
| 04:36 | Trim Patrick St | 1 | 11.2 | 81 | 38,460 | 0.38 | 2.88 | 4.14 | 23.31 | 10.37 | 0 | 4.57 | 7.94 | 8.73 | |||||
| 04:35 | Trim Market St | 2 | 12.7 | 74 | 45,999 | 0.36 | 0 | 3.83 | 14.54 | 35.38 | 0 | 1.43 | 4.29 | 6.93 | |||||
| 04:34 | Trim Market St | 2 | 12.7 | 74 | 46,084 | 0.37 | 0 | 3.83 | 14.35 | 33.51 | 0 | 2.85 | 4.77 | 7.53 | |||||
| 04:33 | Trim Market St | 2 | 12.7 | 74 | 46,212 | 0.36 | 0 | 3.83 | 15.15 | 40.09 | 0 | 2.85 | 5.25 | 9.33 | |||||
| 04:33 | Trim Patrick St | 1 | 11.2 | 81 | 38,460 | 0.38 | 2.72 | 4.08 | 24.05 | 8.98 | 0 | 4.57 | 8.64 | 9.5 | |||||
| 04:32 | Trim Market St | 2 | 12.7 | 74 | 46,343 | 0.36 | 0 | 3.83 | 14.72 | 36.41 | 0 | 3.56 | 5.73 | 8.73 | |||||
| 04:32 | Trim Patrick St | 1 | 11.2 | 81 | 38,460 | 0.37 | 2.62 | 4.13 | 23.68 | 10.05 | 0 | 4.57 | 9.34 | 10.27 | |||||
| 04:31 | Trim Market St | 2 | 12.7 | 74 | 46,507 | 0.37 | 0 | 3.83 | 27.07 | 32.27 | 0 | 3.56 | 6.69 | 9.94 | |||||
| 04:29 | Trim Market St | 2 | 12.7 | 74 | 46,884 | 0.37 | 0 | 3.72 | 15.79 | 32.84 | 0 | 2.85 | 4.78 | 7.53 | |||||
| 04:29 | Trim Patrick St | 1 | 11.2 | 81 | 38,460 | 0.37 | 3.06 | 4.17 | 24.04 | 9.73 | 0 | 6.29 | 10.74 | 11.81 | |||||
| 04:28 | Trim Market St | 2 | 12.7 | 74 | 47,049 | 0.36 | 0 | 3.75 | 15.56 | 33.09 | 0 | 3.56 | 5.26 | 8.13 | |||||
| 04:28 | Trim Patrick St | 1 | 11.2 | 81 | 38,460 | 0.37 | 2.8 | 4.2 | 27.71 | 6.42 | 0 | 5.43 | 10.05 | 11.05 | |||||
| 04:27 | Trim Patrick St | 1 | 11.2 | 81 | 38,460 | 0.38 | 2.41 | 4.21 | 23.25 | 10.69 | 0 | 4.57 | 7.96 | 8.76 | |||||
| 04:25 | Trim Patrick St | 1 | 11.2 | 81 | 38,460 | 0.37 | 3.11 | 4.17 | 28.13 | 6.24 | 0 | 4.57 | 9.36 | 10.29 | |||||
| 04:24 | Trim Patrick St | 1 | 11.2 | 81 | 38,460 | 0.37 | 2.78 | 4.15 | 27.26 | 7.35 | 0 | 4.57 | 9.37 | 10.3 | |||||
| 04:23 | Trim Patrick St | 1 | 11.2 | 81 | 38,460 | 0.37 | 3.03 | 4.13 | 25.13 | 7.45 | 0 | 4.57 | 7.28 | 8.01 | |||||
| 04:23 | Trim Market St | 2 | 12.7 | 74 | 47,930 | 0.37 | 0 | 3.73 | 25.74 | 43.51 | 0 | 2.85 | 4.31 | 6.93 | |||||